Preview of NWS' New Version of Forecast
This preview is not operational and should not be used for support decisions.

Regional Weather Roundup (RWR)

Issued by National Weather Service (NWS)

                            
000
ASUS43 KBIS 162002
RWRND 

NORTH DAKOTA REGIONAL WEATHER ROUNDUP
NATIONAL WEATHER SERVICE BISMARCK ND
200 PM CST SAT FEB 16 2019

NOTE: "FAIR" INDICATES FEW OR NO CLOUDS BELOW 12,000 FEET WITH NO
SIGNIFICANT WEATHER AND/OR OBSTRUCTIONS TO VISIBILITY.


NDZ001>003-009>011-017-162100-
NORTHWEST NORTH DAKOTA
  
CITY           SKY/WX    TMP DP  RH WIND       PRES   REMARKS
WILLISTON      CLOUDY    10   2  69 E13       29.83S WCI  -5          
MINOT          CLOUDY     8   1  73 E15       29.91F WCI  -9          
MINOT AFB      CLOUDY     7   1  74 E15       29.91F WCI -10          
$$
 
NDZ018>021-031>035-040>046-162100-
SOUTHWEST NORTH DAKOTA
  
CITY           SKY/WX    TMP DP  RH WIND       PRES   REMARKS
BISMARCK       FLURRIES  10   4  76 E15       29.86F WCI  -7          
DICKINSON      LGT SNOW   8   2  76 E14       29.71S WCI  -8          
GARRISON         N/A      8   2  76 E17       29.84F WCI -10          
HETTINGER ARPT SNOW       8   3  80 E13       29.70F VSB 1/2 WCI  -8  
$$
 
NDZ004>008-012>016-024-026-027-054-162100-
NORTHEAST NORTH DAKOTA
  
CITY           SKY/WX    TMP DP  RH WIND       PRES   REMARKS
GRAND FORKS    CLOUDY     4  -3  73 NE6       30.10F WCI  -7          
GRND FRKS AFB  CLOUDY     4  -4  69 NE6       30.09F WCI  -7          
DEVILS LAKE    CLOUDY     3  -1  83 E14       29.99F WCI -15          
$$
 
NDZ022-023-025-028>030-036>039-047>053-162100-
SOUTHEAST NORTH DAKOTA
  
CITY           SKY/WX    TMP DP  RH WIND       PRES   REMARKS
FARGO          CLOUDY    10   2  69 E8        30.06F WCI  -2          
JAMESTOWN      CLOUDY     6   1  80 E9        29.94F WCI  -8          
$$